Regional Weather Roundup
Issued by NWS

Home | Current Version | Previous Version | Graphics & Text | Print | Product List | Glossary Off
Versions: 1 2 3 4 5 6 7 8 9 10 11 12 13 14 15 16 17 18 19 20 21 22 23 24 25 26 27 28 29 30 31 32 33 34 35 36 37 38 39 40 41 42 43 44 45 46 47 48 49 50

000
ASUS43 KLSX 291457
RWRMO

WEATHER SUMMARY FOR MISSOURI
NATIONAL WEATHER SERVICE SPRINGFIELD MO
1000 AM CDT SUN MAY 29 2016

NOTE: "FAIR" INDICATES FEW OR NO CLOUDS BELOW 12,000 FEET WITH NO
       SIGNIFICANT WEATHER AND/OR OBSTRUCTIONS TO VISIBILITY.
       CURRENT SKY AND/OR WEATHER CONDITIONS ARE NOT AVAILABLE FOR
       CHILLICOTHE AND FARMINGTON.

MOZ001>031-035>038-043-044-053-054-291600-
...NORTHERN AND WESTERN MISSOURI...

CITY           SKY/WX    TMP DP  RH WIND       PRES   REMARKS
KANSAS CTY INT MOSUNNY   74  62  66 VRB6      30.12R
LEE`S SUMMIT   SUNNY     77  63  61 W7        30.12R
ST JOSEPH      SUNNY     73  62  68 S6        30.11R
CHILLICOTHE      N/A     75  64  68 VRB5      30.11S

$$
MOZ066>068-077>081-088>096-101>105-291600-
...SOUTHWEST MISSOURI...

CITY           SKY/WX    TMP DP  RH WIND       PRES   REMARKS
SPRINGFIELD    CLOUDY    77  68  73 W9        30.15S
JOPLIN         CLOUDY    77  70  79 W6        30.15S
BRANSON        CLOUDY    73  68  83 W6        30.18R

$$
MOZ032>034-039>042-045>050-055>058-069>072-291600-
...CENTRAL MISSOURI...

CITY           SKY/WX    TMP DP  RH WIND       PRES   REMARKS
COLUMBIA       NOT AVBL
JEFFERSON CITY SUNNY     78  65  63 VRB3      30.10S
ROLLA          SUNNY     75  66  73 SW7       30.12S
SEDALIA        SUNNY     79  63  57 W7        30.13R
WARRENSBURG    SUNNY     75  61  60 SW3       30.11R

$$
MOZ051-052-059>065-291600-
...EAST CENTRAL MISSOURI...

CITY           SKY/WX    TMP DP  RH WIND       PRES   REMARKS
ST LOUIS INTL  MOSUNNY   81  62  52 NW6       30.11R

$$
MOZ072>076-082>087-097>100-106>115-291600-
...SOUTH CENTRAL AND SOUTHEAST MISSOURI...

CITY           SKY/WX    TMP DP  RH WIND       PRES   REMARKS
CAPE GIRARDEAU SUNNY     77  69  76 CALM      30.10S
POPLAR BLUFF   SUNNY     79  69  71 CALM      30.11R
WEST PLAINS    MOSUNNY   78  65  63 W6        30.17R

$$



USA.gov is the U.S. government's official web portal to all federal, state and local government web resources and services.